STARLINK-35949 (66630 NORAD) Tracking and Keplerian Element Data

This shows tracking and keplerian element data for the satellite.

Feedback or suggestion? Click here.




ElementValue
Catalog66630
NameSTARLINK-35949
Epoch Orbit531
Epoch Day353.88047524
Epoch Year2025
RAAN153.0444
Inclination53.1593
Eccentricity0.0003221
Argument of Perigee47.5604
Mean Anonmoly312.5676
Mean Motion15.46903837
Decay Rate-0.002797
L11 66630U 25271P 25353.88047524 -.00279700 00000+0 -56580-2 0 9996
L22 66630 53.1593 153.0444 0003221 47.5604 312.5676 15.46903837 5319



Live tracking and technical data element details for STARLINK-35949 (NORAD 66630). STARLINK-35949 can be tracked NOW for your location showing map with azimuth and elevation plus other details from your city location.







IsCatalogInMostPopularTable: catalog: 66630, numindb: 7
Update: records affected: 1



GetName: 66630 STARLINK-35949

Hit Count: updated at: Sun, 08 Feb 2026 17:55:36 GMT